timestamp,surface_pressure_avg,surface_temp_avg,battery_voltage,lat,long
2020-06-23 00:09:01+00:00,354.6512,11.49,13.13,47.84626,-54.09684
2020-06-23 00:19:01+00:00,355.3063,11.46,12.81,47.84626,-54.09684
2020-06-23 00:29:01+00:00,360.6146,11.44,12.81,47.84626,-54.09684
2020-06-23 00:39:01+00:00,362.7097,11.42,12.81,47.84626,-54.09684
2020-06-23 00:49:01+00:00,360.37300000000016,11.4,12.81,47.84626,-54.09684
2020-06-23 00:59:01+00:00,358.9713,11.4,12.81,47.84626,-54.09684
2020-06-23 01:09:01+00:00,360.4564,11.4,12.81,47.84626,-54.09684
2020-06-23 01:19:01+00:00,356.9796,11.4,12.73,47.84626,-54.09684
2020-06-23 01:29:01+00:00,354.5696,11.4,12.73,47.84626,-54.09684
2020-06-23 01:39:01+00:00,352.0596,11.4,12.73,47.84626,-54.09684
2020-06-23 01:49:01+00:00,350.2296,11.4,12.73,47.84626,-54.09684
2020-06-23 01:59:01+00:00,344.9813,11.4,12.73,47.84626,-54.09684
2020-06-23 02:09:01+00:00,340.6431,11.4,12.73,47.84626,-54.09684
2020-06-23 02:19:01+00:00,339.7846,11.4,12.73,47.84626,-54.09684
2020-06-23 02:29:01+00:00,337.9363,11.4,12.73,47.84626,-54.09684
2020-06-23 02:39:01+00:00,335.8831,11.4,12.73,47.84626,-54.09684
2020-06-23 02:49:01+00:00,329.4747,11.4,12.73,47.84626,-54.09684
2020-06-23 02:59:01+00:00,324.6097,11.4,12.73,47.84626,-54.09684
2020-06-23 03:09:01+00:00,319.2613,11.4,12.73,47.84626,-54.09684
2020-06-23 03:19:01+00:00,314.233,11.4,12.73,47.84626,-54.09684
2020-06-23 03:29:01+00:00,305.3563,11.4,12.73,47.84626,-54.09684
2020-06-23 03:39:01+00:00,292.373,11.4,12.73,47.84626,-54.09684
2020-06-23 03:49:01+00:00,281.6847,11.4,12.73,47.84626,-54.09684
2020-06-23 03:59:01+00:00,276.9847,11.4,12.73,47.84626,-54.09684
2020-06-23 04:09:01+00:00,267.2648,11.4,12.73,47.84626,-54.09684
2020-06-23 04:19:01+00:00,254.4031,11.4,12.65,47.84626,-54.09684
2020-06-23 04:29:01+00:00,244.7798,11.4,12.65,47.84626,-54.09684
2020-06-23 04:39:01+00:00,237.6997,11.4,12.65,47.84626,-54.09684
2020-06-23 04:49:01+00:00,225.9614,11.4,12.65,47.84626,-54.09684
2020-06-23 04:59:01+00:00,215.1198,11.4,12.65,47.84626,-54.09684
2020-06-23 05:09:01+00:00,208.3831,11.4,12.65,47.84626,-54.09684
2020-06-23 05:19:01+00:00,200.4648,11.4,12.65,47.84626,-54.09684
2020-06-23 05:29:01+00:00,190.5165,11.4,12.65,47.84626,-54.09684
2020-06-23 05:39:01+00:00,184.6681,11.41,12.65,47.84626,-54.09684
2020-06-23 05:49:01+00:00,183.0882,11.43,12.65,47.84626,-54.09684
2020-06-23 05:59:01+00:00,181.3982,11.44,12.65,47.84626,-54.09684
2020-06-23 06:09:01+00:00,178.7481,11.44,12.65,47.84626,-54.09684
2020-06-23 06:19:01+00:00,179.3415,11.44,12.65,47.84626,-54.09684
2020-06-23 06:29:01+00:00,177.3814,11.45,12.65,47.84626,-54.09684
2020-06-23 06:39:01+00:00,174.4365,11.45,12.65,47.84626,-54.09684
2020-06-23 06:49:01+00:00,176.7832,11.45,12.65,47.84626,-54.09684
2020-06-23 06:59:01+00:00,180.0882,11.44,12.65,47.84626,-54.09684
2020-06-23 07:09:01+00:00,181.7331,11.44,12.65,47.84626,-54.09684
2020-06-23 07:19:01+00:00,180.1565,11.45,12.65,47.84626,-54.09684
2020-06-23 07:29:01+00:00,182.6698,11.45,12.65,47.84626,-54.09684
2020-06-23 07:39:01+00:00,188.4498,11.44,12.65,47.84626,-54.09684
2020-06-23 07:49:01+00:00,188.6265,11.46,12.65,47.84626,-54.09684
2020-06-23 07:59:01+00:00,189.4998,11.46,12.65,47.84626,-54.09684
2020-06-23 08:09:01+00:00,196.8548,11.46,12.65,47.84626,-54.09684
2020-06-23 08:19:01+00:00,199.8165,11.46,12.65,47.84626,-54.09684
2020-06-23 08:29:01+00:00,201.4264,11.47,12.65,47.84626,-54.09684
2020-06-23 08:39:01+00:00,206.0565,11.47,12.65,47.84626,-54.09684
2020-06-23 08:49:01+00:00,209.3648,11.48,12.65,47.84626,-54.09684
2020-06-23 08:59:01+00:00,212.0015,11.49,12.65,47.84626,-54.09684
2020-06-23 09:09:01+00:00,214.5798,11.49,12.65,47.84626,-54.09684
2020-06-23 09:19:01+00:00,219.9931,11.49,12.65,47.84626,-54.09684
2020-06-23 09:29:01+00:00,225.8798,11.49,12.65,47.84626,-54.09684
2020-06-23 09:39:01+00:00,231.0814,11.46,12.65,47.84626,-54.09684
2020-06-23 09:49:01+00:00,235.0998,11.44,12.65,47.84626,-54.09684
2020-06-23 09:59:01+00:00,240.0631,11.41,12.65,47.84626,-54.09684
2020-06-23 10:09:01+00:00,245.9014,11.41,12.65,47.84626,-54.09684
2020-06-23 10:19:01+00:00,251.4164,11.4,12.81,47.84626,-54.09684
2020-06-23 10:29:01+00:00,256.0131,11.4,12.81,47.84626,-54.09684
2020-06-23 10:39:01+00:00,260.2448,11.4,12.81,47.84626,-54.09684
2020-06-23 10:49:01+00:00,264.0847,11.4,12.81,47.84626,-54.09684
2020-06-23 10:59:01+00:00,272.4614,11.4,12.81,47.84626,-54.09684
2020-06-23 11:09:01+00:00,283.8314,11.4,12.81,47.84626,-54.09684
2020-06-23 11:19:01+00:00,289.5813,11.4,13.05,47.84626,-54.09684
2020-06-23 11:29:01+00:00,292.1213,11.4,13.05,47.84626,-54.09684
2020-06-23 11:39:01+00:00,301.3197,11.4,13.05,47.84626,-54.09684
2020-06-23 11:49:01+00:00,309.9996,11.4,13.05,47.84626,-54.09684
2020-06-23 11:59:01+00:00,312.9915,11.4,13.05,47.84626,-54.09684
2020-06-23 12:09:01+00:00,315.4997,11.4,13.05,47.84626,-54.09684
2020-06-23 12:19:01+00:00,322.4164,11.4,13.29,47.84626,-54.09684
2020-06-23 12:29:01+00:00,324.9496,11.4,13.29,47.84626,-54.09684
2020-06-23 12:39:01+00:00,324.1345,11.41,13.29,47.84626,-54.09684
2020-06-23 12:49:01+00:00,327.1647,11.46,13.29,47.84626,-54.09684
2020-06-23 12:59:01+00:00,330.4997,11.5,13.29,47.84626,-54.09684
2020-06-23 13:09:01+00:00,328.9479,11.5,13.29,47.84626,-54.09684
2020-06-23 13:19:01+00:00,329.3213,11.5,13.84,47.84626,-54.09684
2020-06-23 13:29:01+00:00,331.7045,11.5,13.84,47.84626,-54.09684
2020-06-23 13:39:01+00:00,329.8279,11.5,13.84,47.84626,-54.09684
2020-06-23 13:49:01+00:00,326.3412,11.51,13.84,47.84626,-54.09684
2020-06-23 13:59:01+00:00,323.8463,11.55,13.84,47.84626,-54.09684
2020-06-23 14:09:01+00:00,322.3546,11.56,13.84,47.84626,-54.09684
2020-06-23 14:19:01+00:00,318.2013,11.56,14.24,47.84626,-54.09684
2020-06-23 14:29:01+00:00,315.753,11.56,14.24,47.84626,-54.09684
2020-06-23 14:39:01+00:00,312.8613,11.58,14.24,47.84626,-54.09684
2020-06-23 14:49:01+00:00,308.21299999999997,11.59,14.24,47.84626,-54.09684
2020-06-23 14:59:01+00:00,303.4463,11.6,14.24,47.84626,-54.09684
2020-06-23 15:09:01+00:00,302.9464,11.6,14.24,47.84626,-54.09684
2020-06-23 15:19:01+00:00,299.543,11.6,14.4,47.84626,-54.09684
2020-06-23 15:29:01+00:00,292.1097,11.64,14.4,47.84626,-54.09684
2020-06-23 15:39:01+00:00,283.3746,11.69,14.4,47.84626,-54.09684
2020-06-23 15:49:01+00:00,279.2064,11.7,14.4,47.84626,-54.09684
2020-06-23 15:59:01+00:00,271.8564,11.71,14.4,47.84626,-54.09684
2020-06-23 16:09:01+00:00,262.2964,11.79,14.4,47.84626,-54.09684
2020-06-23 16:19:01+00:00,251.8748,11.84,14.32,47.84626,-54.09684
2020-06-23 16:29:01+00:00,245.4665,11.9,14.32,47.84626,-54.09684
2020-06-23 16:39:01+00:00,239.4498,11.89,14.32,47.84626,-54.09684
2020-06-23 16:49:01+00:00,232.5998,11.85,14.32,47.84626,-54.09684
2020-06-23 16:59:01+00:00,223.0898,11.8,14.32,47.84626,-54.09684
2020-06-23 17:09:01+00:00,213.9015,11.86,14.32,47.84626,-54.09684
2020-06-23 17:19:01+00:00,206.1081,11.87,14.24,47.84626,-54.09684
2020-06-23 17:29:01+00:00,199.6764,11.82,14.24,47.84626,-54.09684
2020-06-23 17:39:01+00:00,193.7648,11.8,14.24,47.84626,-54.09684
2020-06-23 17:49:01+00:00,190.5865,11.8,14.24,47.84626,-54.09684
2020-06-23 17:59:01+00:00,188.0781,11.8,14.24,47.84626,-54.09684
2020-06-23 18:09:01+00:00,184.7815,11.86,14.24,47.84626,-54.09684
2020-06-23 18:19:01+00:00,183.6148,11.89,14.08,47.84626,-54.09684
2020-06-23 18:29:01+00:00,186.7264,11.87,14.08,47.84626,-54.09684
2020-06-23 18:39:01+00:00,185.3815,11.85,14.08,47.84626,-54.09684
2020-06-23 18:49:01+00:00,183.3515,11.9,14.08,47.84626,-54.09684
2020-06-23 18:59:01+00:00,187.1298,11.9,14.08,47.84626,-54.09684
2020-06-23 19:09:01+00:00,189.4115,11.9,14.08,47.84626,-54.09684
2020-06-23 19:19:01+00:00,188.2164,11.9,13.84,47.84626,-54.09684
2020-06-23 19:29:01+00:00,190.4048,11.97,13.84,47.84626,-54.09684
2020-06-23 19:39:01+00:00,198.0431,11.98,13.84,47.84626,-54.09684
2020-06-23 19:49:01+00:00,201.9781,11.92,13.84,47.84626,-54.09684
2020-06-23 19:59:01+00:00,201.2598,11.94,13.84,47.84626,-54.09684
2020-06-23 20:09:01+00:00,207.0548,11.98,13.84,47.84626,-54.09684
2020-06-23 20:19:01+00:00,214.5914,11.98,13.76,47.84626,-54.09684
2020-06-23 20:29:01+00:00,217.1965,11.9,13.76,47.84626,-54.09684
2020-06-23 20:39:01+00:00,218.8547,11.9,13.76,47.84626,-54.09684
2020-06-23 20:49:01+00:00,225.5614,11.9,13.76,47.84626,-54.09684
2020-06-23 20:59:01+00:00,230.2897,11.84,13.76,47.84626,-54.09684
2020-06-23 21:09:01+00:00,229.9781,11.8,13.76,47.84626,-54.09684
2020-06-23 21:19:01+00:00,233.4847,11.89,13.68,47.84626,-54.09684
2020-06-23 21:29:01+00:00,239.5898,11.9,13.68,47.84626,-54.09684
2020-06-23 21:39:01+00:00,242.3898,11.9,13.68,47.84626,-54.09684
2020-06-23 21:49:01+00:00,245.9864,11.95,13.68,47.84626,-54.09684
2020-06-23 21:59:01+00:00,253.9564,11.95,13.68,47.84626,-54.09684
2020-06-23 22:09:01+00:00,262.463,11.9,13.68,47.84626,-54.09684
2020-06-23 22:19:01+00:00,267.1764,11.8,13.6,47.84626,-54.09684
2020-06-23 22:29:01+00:00,274.5647,11.71,13.6,47.84626,-54.09684
2020-06-23 22:39:01+00:00,282.0063,11.7,13.6,47.84626,-54.09684
2020-06-23 22:49:01+00:00,287.3981,11.7,13.6,47.84626,-54.09684
2020-06-23 22:59:01+00:00,293.0964,11.75,13.6,47.84626,-54.09684
2020-06-23 23:09:01+00:00,303.5814,11.7,13.6,47.84626,-54.09684
2020-06-23 23:19:01+00:00,311.5413,11.64,13.29,47.84626,-54.09684
2020-06-23 23:29:01+00:00,317.3879,11.76,13.29,47.84626,-54.09684
2020-06-23 23:39:01+00:00,324.5597,11.8,13.29,47.84626,-54.09684
2020-06-23 23:49:01+00:00,335.3713,11.8,13.29,47.84626,-54.09684
2020-06-23 23:59:01+00:00,341.048,11.84,13.29,47.84626,-54.09684
